Tracking 22879 objects as of 22-Apr-2021
HD Live streaming from Space Station
objects crossing your sky now

STARLINK-1909

Track STARLINK-1909 now!
10-day predictions
STARLINK-1909 is classified as:


NORAD ID: 47550
Int'l Code: 2021-009C
Perigee: 384.4 km
Apogee: 389.4 km
Inclination: 53.1 °
Period: 92.1 minutes
Semi major axis: 6757 km
RCS: Unknown
Launch date: February 4, 2021
Source: United States (US)
Launch site: AIR FORCE EASTERN TEST RANGE (AFETR)
aabbcc
Your satellite tracking list
Your tracking list is empty




NASA's NSSDC Master Catalog

Two Line Element Set (TLE):
1 47550U 21009C   21111.58334491  .00003766  00000-0  46984-4 0  9993
2 47550  53.0541 110.2401 0003719   3.3317 312.9133 15.62742936 12580
Source of the keplerian elements: AFSPC